Regional Weather Roundup
Issued by NWS

Home | Current Version | Previous Version | Text Only | Print | Product List | Glossary On
Versions: 1 2 3 4 5 6 7 8 9 10 11 12 13 14 15 16 17 18 19 20 21 22 23 24 25 26 27 28 29 30 31 32 33 34 35 36 37 38 39 40 41 42 43 44 45 46 47 48 49 50
000
ASUS43 KMKX 060421
RWRWI

WISCONSIN REGIONAL WEATHER ROUNDUP
NATIONAL WEATHER SERVICE MILWAUKEE/SULLIVAN WI
1000 PM CST MON DEC 05 2016

NOTE: "FAIR" INDICATES FEW OR NO CLOUDS BELOW 12,000 FEET WITH NO
SIGNIFICANT WEATHER AND/OR OBSTRUCTIONS TO VISIBILITY.

WIZ001-002-006>008-014>016-023>028-060500-
NORTHWEST WISCONSIN

CITY           SKY/WX    TMP DP  RH WIND       PRES   REMARKS
SUPERIOR ARPT  CLOUDY    35  33  91 E3        29.67F
ASHLAND        CLOUDY    35  32  88 MISG      29.73S
HAYWARD        CLOUDY    35  29  78 S12       29.70S WCI  27
SIREN          CLOUDY    37  30  77 S16G23    29.65S WCI  27
CUMBERLAND     CLOUDY    34  30  86 SE13G23   29.68F WCI  25
RICE LAKE      CLOUDY    35  31  86 SE13      29.72S WCI  26
CHETEK         MOCLDY    34  31  90 SE7       29.72F WCI  28
LADYSMITH      CLOUDY    35  31  86 SE9       29.75F WCI  27
EAU CLAIRE     PTCLDY    36  30  79 S13       29.74S WCI  27
MENOMONIE      CLOUDY    36  31  85 SE10      29.73S WCI  28
NEW RICHMOND   CLOUDY    36  32  86 S17       29.67F WCI  26
OSCEOLA        CLOUDY    37  32  83 SE15      29.69S WCI  28
$$

WIZ003>005-009-010-017-018-060500-
NORTH CENTRAL WISCONSIN

CITY           SKY/WX    TMP DP  RH WIND       PRES   REMARKS
MANITOWISH WTR CLOUDY    35  33  93 SE7       29.74F WCI  29
ARBOR VITAE    PTCLDY    37  32  85 SE10      29.74F WCI  29
WOODRUFF       PTCLDY    37  32  85 SE10      29.74F WCI  29
RHINELANDER    CLOUDY    34  32  92 SE9       29.79F WCI  27
EAGLE RIVER    PTCLDY    33  33  97 SE5       29.80S WCI  29
LAND O LAKES   CLOUDY    34  32  93 SE5       29.82R WCI  30
PHILLIPS       PTCLDY    33  30  88 SE12      29.74F WCI  24
TOMAHAWK       CLOUDY    32  30  90 SE5       29.77F WCI  28
MEDFORD        MOCLDY    32  29  90 S8        29.79R WCI  24
MERRILL        CLOUDY    32  31  97 SE10      29.79F WCI  24
$$

WIZ029-030-035-036-043>047-060500-
CENTRAL WISCONSIN

CITY           SKY/WX    TMP DP  RH WIND       PRES   REMARKS
WAUSAU         CLOUDY    32  30  92 SE8       29.81F WCI  25
MOSINEE        CLOUDY    30  30 100 SE8       29.82F FOG     WCI  23
MARSHFIELD     CLOUDY    32  29  88 SE12      29.79F WCI  23
STEVENS POINT  CLOUDY    30  30 100 SE6       29.85F FOG     WCI  24
WAUPACA        CLOUDY    34  32  93 CALM      29.88S FOG
WAUTOMA        CLOUDY    32  31  96 SE8       29.88F FOG     WCI  25
WISC RAPIDS    CLOUDY    32  31  96 SE8       29.85F FOG     WCI  25
CAMP DOUGLAS   CLOUDY    32  32 100 SE10      29.82F WCI  24
$$

WIZ011>013-019>022-031-037>040-048>050-060500-
NORTHEAST WISCONSIN

CITY           SKY/WX    TMP DP  RH WIND       PRES   REMARKS
ANTIGO         CLOUDY    30  30 100 SE10      29.84F FOG     WCI  21
SHAWANO        CLOUDY    35  32  90 SE6       29.89F FOG     WCI  30
OCONTO         CLOUDY    34  32  92 SE7       29.93S WCI  28
STURGEON BAY   NOT AVBL
GREEN BAY      CLOUDY    35  33  92 SE8       29.92F WCI  29
MANITOWOC      CLOUDY    35  34  96 MISG      29.94F FOG
APPLETON       CLOUDY    34  32  93 SE7       29.89F WCI  28
CLINTONVILLE   CLOUDY    32  32 100 SE6       29.89S FOG     WCI  26
OSHKOSH        PTCLDY    32  30  92 SE6       29.89F WCI  26
$$

WIZ032>034-041-042-053>061-060500-
SOUTHWEST WISCONSIN

CITY           SKY/WX    TMP DP  RH WIND       PRES   REMARKS
LA CROSSE      MOCLDY    36  30  79 S13       29.80S WCI  27
SPARTA         PTCLDY    34  31  88 CALM      29.82R
VIROQUA        CLOUDY    32  32 100 SE14      29.80R WCI  22
BOSCOBEL       CLOUDY    35  31  85 MISG      29.86S
PRAIRIE DU CHI CLOUDY    34  31  87 SE8       29.84S WCI  27
PLATTEVILLE    CLOUDY    32  32 100 SE10      29.86S WCI  23
$$

WIZ056-057-062-063-064-067-068-060500-
SOUTH CENTRAL WISCONSIN

CITY           SKY/WX    TMP DP  RH WIND       PRES   REMARKS
REEDSBURG      CLOUDY    32  32 100 SE7       29.85F WCI  26
BARABOO/DELLS  CLOUDY    32  31  96 S6        29.87R FOG     WCI  26
LONE ROCK      CLOUDY    33  30  88 SE9       29.87F WCI  25
MINERAL POINT  LGT SNOW  32  32 100 SE12      29.85S WCI  23
MADISON        CLOUDY    31  30  96 S9        29.89S WCI  23
MIDDLETON      NOT AVBL
WATERTOWN      CLOUDY    31  31 100 S9        29.91S FOG     WCI  23
MONROE         FOG       30  30 100 SE18G24   29.86F VSB 3/4 WCI  18
JANESVILLE     CLOUDY    32  32 100 SE9       29.91F FOG     WCI  24
$$

WIZ051-052-058>065-066-070>072-060500-
SOUTHEAST WISCONSIN

CITY           SKY/WX    TMP DP  RH WIND       PRES   REMARKS
MILWAUKEE      CLOUDY    36  33  89 S9        29.93F FOG     WCI  29
WAUKESHA       FOG       32  32 100 S10       29.95R VSB 1   WCI  24
MILWAUKEE/TIMM CLOUDY    34  32  93 SE3       29.94F FOG
RACINE         CLOUDY    37  33  85 S12       29.96F WCI  29
BURLINGTON     CLOUDY    31  31  99 CALM      29.94S FOG
KENOSHA        CLOUDY    35  32  88 S12       29.95F WCI  27
FOND DU LAC    CLOUDY    33  29  85 SE8       29.90F WCI  26
SHEBOYGAN      CLOUDY    34  32  92 S5        29.93F FOG     WCI  30
WEST BEND      CLOUDY    32  32 100 SE5       29.92F FOG     WCI  27
JUNEAU         CLOUDY    31  30  96 SE8       29.90F FOG     WCI  23
$$

LSZ147-162-060500-
LAKE SUPERIOR

STATION/POSITION TIME  TEMP    WIND        PRES    WAVE
                       AIR SEA DIR/SP/G            HT/PER
                 (UTC) (F)     (DEG/KT/KT) (MB)    (FT/S)
DEVILS ISLAND    0400   40     130/ 14/ 19 1007.0R
PORT WING        0340   38     130/  5/ 10 1005.8F
SAXON HARBOR     0340   39     170/  4/  8 1006.8F
$$

LMZ867-665-643>646-060500-
LAKE MICHIGAN

STATION/POSITION TIME  TEMP    WIND        PRES    WAVE
                       AIR SEA DIR/SP/G            HT/PER
                 (UTC) (F)     (DEG/KT/KT) (MB)    (FT/S)
CHAMBERS ISLAND  0340   36      70/  9/ 11 1013.2F
NORTHPORT PIER   0340   35     170/  2/  6 1014.6R
SISTER BAY       0338   34     160/  9/ 11   N/A
ALGOMA LAKESHORE 0236             CALM       N/A
KEWAUNEE LAKESHO 0354   39     190/ 11/ 16 1013.5F
SHEBOYGAN LAKESH 0400   39     170/ 15/ 16 1013.8F
PORT WASHINGTON  0340   38     190/  5/ 11 1014.9F
MILWAUKEE LAKESH 0400   39     170/ 14/ 16   N/A
KENOSHA   LAKESH 0400   38     160/ 18/ 22 1014.2
$$

TC  - TEMPERATURE IN CELSIUS
VSB - VISIBILITY IN STATUTE MILES
WCI - WIND CHILL INDEX
HX  - HEAT INDEX





USA.gov is the U.S. government's official web portal to all federal, state and local government web resources and services.